North Canton, OH

5:32 PM EDT on August 23, 2016 (GMT -0400)
Akron-Canton Regional

Weather History for KCAK - September, 2012

Change the Weather History Date:

Wednesday, September 26, 2012

  Actual Average Record
Temperature  
Mean Temperature 62 °F 59 °F  
Max Temperature 65 °F 69 °F 89 °F (1900)
Min Temperature 58 °F 49 °F 34 °F (1928)
Degree Days  
Heating Degree Days 3 7  
Month to date heating degree days 106 87  
Since 1 July heating degree days 108 107  
Cooling Degree Days 0 1  
Month to date cooling degree days 85 61  
Year to date cooling degree days 1038 643  
Growing Degree Days 10 (Base 50)    
Moisture  
Dew Point 58 °F    
Average Humidity 87    
Maximum Humidity 93    
Minimum Humidity 80    
Precipitation  
Precipitation 0.58 in 0.12 in 1.42 in (1976)
Month to date precipitation 3.99 3.02  
Year to date precipitation 27.40 30.22  
Snow  
Snow 0.00 in 0.00 in - ()
Month to date snowfall 0.0 0.0  
Since 1 July snowfall 0.0 0.0  
Since 1 September snowfall 0.0 0.0  
Snow Depth 0.00 in    
Sea Level Pressure  
Sea Level Pressure 30.03 in    
Wind  
Wind Speed 9 mph (SW)    
Max Wind Speed 17 mph    
Max Gust Speed 23 mph    
Visibility 4 miles    
Events Rain    
T = Trace of Precipitation, MM = Missing Value Source: NWS Daily Summary

Daily Weather History Graph

Daily Weather History Graph

Search for Another Location

Airport or City:

Trip Planner

Search our weather history database for the weather conditions in past years. The results will help you decide how hot, cold, wet, or windy it might be!

Date:

Astronomy

Sep. 26, 2012 Rise Set
Actual Time 7:17 AM EDT 7:15 PM EDT
Civil Twilight 6:50 AM EDT 7:42 PM EDT
Nautical Twilight 6:18 AM EDT 8:14 PM EDT
Astronomical Twilight 5:45 AM EDT 8:46 PM EDT
Moon 5:15 PM EDT (9/26) 3:40 AM EDT (9/26)
Length of Visible Light 12h 52m
Length of Day
11h 57m
Waxing Gibbous, 88% of the Moon is Illuminated
Sep 26
Waxing Gibbous
Sep 29
Full
Oct 8
Last Quarter
Oct 15
New
Oct 21
First Quarter

Hourly Weather History & Observations

Time (EDT) Temp. Dew Point Humidity Pressure Visibility Wind Dir Wind Speed Gust Speed Precip Events Conditions
12:51 AM 59.0 °F 54.0 °F 83% 30.00 in 6.0 mi SSW 10.4 mph - N/A   Haze
1:51 AM 59.0 °F 54.0 °F 83% 30.00 in 6.0 mi SSW 9.2 mph - N/A   Haze
2:51 AM 59.0 °F 55.0 °F 87% 29.98 in 5.0 mi SSW 9.2 mph - N/A   Overcast
3:51 AM 59.0 °F 55.0 °F 87% 29.97 in 5.0 mi SSW 8.1 mph - 0.00 in Rain Light Rain
4:51 AM 59.0 °F 55.9 °F 90% 29.97 in 3.0 mi SW 9.2 mph 19.6 mph 0.09 in Rain Light Rain
5:04 AM 60.8 °F 55.4 °F 82% 29.98 in 1.5 mi SW 9.2 mph 18.4 mph 0.11 in Rain Heavy Rain
5:30 AM 59.0 °F 55.4 °F 88% 29.98 in 3.0 mi SSW 5.8 mph - 0.20 in Rain Light Rain
5:51 AM 59.0 °F 55.9 °F 90% 29.97 in 4.0 mi SSW 6.9 mph - 0.20 in   Overcast
6:51 AM 60.1 °F 57.0 °F 90% 29.99 in 4.0 mi SSW 12.7 mph - N/A   Overcast
7:38 AM 60.8 °F 57.2 °F 88% 29.99 in 4.0 mi SSW 10.4 mph - N/A   Overcast
7:51 AM 60.1 °F 57.0 °F 90% 29.99 in 2.5 mi SSW 11.5 mph - N/A   Overcast
8:51 AM 61.0 °F 57.9 °F 90% 30.01 in 2.5 mi SSW 16.1 mph 23.0 mph N/A   Overcast
9:51 AM 61.0 °F 57.9 °F 90% 30.02 in 2.5 mi SW 15.0 mph 23.0 mph 0.00 in   Overcast
10:01 AM 60.8 °F 57.2 °F 88% 30.03 in 4.0 mi SW 13.8 mph - 0.00 in Rain Light Rain
10:51 AM 63.0 °F 57.9 °F 84% 30.02 in 5.0 mi SW 11.5 mph - 0.00 in   Haze
11:19 AM 62.6 °F 57.2 °F 82% 30.03 in 7.0 mi SSW 11.5 mph - 0.00 in   Overcast
11:51 AM 63.0 °F 57.9 °F 84% 30.03 in 7.0 mi SW 12.7 mph - 0.00 in   Overcast
12:51 PM 63.0 °F 59.0 °F 87% 30.03 in 2.0 mi SW 11.5 mph - 0.01 in Rain Light Rain
1:34 PM 62.6 °F 59.0 °F 88% 30.03 in 4.0 mi WSW 9.2 mph - 0.00 in Rain Light Rain
1:51 PM 63.0 °F 59.0 °F 87% 30.01 in 4.0 mi WSW 8.1 mph - 0.03 in Rain Light Rain
2:24 PM 62.6 °F 59.0 °F 88% 30.03 in 5.0 mi West 11.5 mph - 0.01 in Rain Light Rain
2:51 PM 64.0 °F 60.1 °F 87% 30.03 in 6.0 mi WSW 10.4 mph - 0.02 in   Overcast
3:17 PM 64.4 °F 60.8 °F 88% 30.04 in 6.0 mi West 10.4 mph - 0.00 in Rain Light Rain
3:42 PM 64.4 °F 60.8 °F 88% 30.04 in 3.0 mi WSW 10.4 mph - 0.01 in Rain Light Rain
3:51 PM 64.0 °F 60.1 °F 87% 30.04 in 3.0 mi WSW 9.2 mph - 0.02 in Rain Rain
3:57 PM 64.4 °F 60.8 °F 88% 30.05 in 2.0 mi WSW 8.1 mph - 0.01 in Rain Light Rain
4:51 PM 64.0 °F 61.0 °F 90% 30.05 in 2.0 mi SW 8.1 mph - 0.13 in Rain Light Rain
5:51 PM 64.0 °F 61.0 °F 90% 30.04 in 3.0 mi WSW 5.8 mph - 0.03 in Rain Light Rain
6:37 PM 64.4 °F 60.8 °F 88% 30.08 in 2.0 mi SW 11.5 mph - 0.02 in Rain Light Rain
6:51 PM 64.9 °F 61.0 °F 87% 30.06 in 2.0 mi SW 5.8 mph - 0.03 in Rain Rain
7:51 PM 64.4 °F 60.8 °F 88% 30.07 in 2.0 mi SSW 9.2 mph - N/A Rain Light Rain
8:08 PM 64.4 °F 60.8 °F 88% 30.08 in 6.0 mi SW 10.4 mph - 0.00 in Rain Light Rain
8:51 PM 63.0 °F 60.1 °F 90% 30.10 in 6.0 mi West 5.8 mph - 0.00 in Rain Light Rain
9:51 PM 63.0 °F 60.1 °F 90% 30.10 in 6.0 mi West 5.8 mph - 0.00 in Rain Light Rain
10:51 PM 61.0 °F 57.9 °F 90% 30.11 in 6.0 mi Calm Calm - 0.00 in Rain Light Rain
11:51 PM 61.0 °F 57.9 °F 90% 30.12 in 2.0 mi WSW 3.5 mph - 0.00 in   Scattered Clouds